1489622401.13,6593,9.69,73380.0,-12.17,-12.75,-12.89,0,*5F
1489622402.39,6594,9.69,73384.8,-12.19,-12.75,-12.93,0,*5D
1489622403.63,6595,9.69,73380.0,-12.19,-12.89,-12.89,0,*54
1489622404.86,6596,9.69,73384.8,-12.19,-12.89,-12.89,0,*57
1489622406.12,6597,9.69,73376.8,-12.17,-12.75,-13.01,0,*5A
1489622407.36,6598,9.69,73378.5,-12.17,-12.75,-12.89,0,*54
1489622408.61,6599,9.69,73382.8,-12.17,-12.83,-12.83,0,*56
1489622409.86,6600,9.69,73386.0,-12.17,-12.83,-12.83,0,*55
1489622411.1,6601,9.69,73390.0,-12.19,-12.89,-12.89,0,*5A
1489622412.33,6602,9.69,73394.5,-12.19,-12.89,-12.93,0,*52
1489622413.57,6603,9.69,73388.8,-12.19,-12.89,-12.93,0,*53
1489622414.83,6604,9.69,73388.8,-12.19,-12.75,-12.93,0,*57
1489622416.09,6605,9.69,73390.5,-12.19,-12.79,-12.89,0,*51
1489622417.38,6606,9.69,73400.0,-12.19,-12.75,-12.79,0,*51
1489622418.67,6607,9.69,73390.3,-12.19,-12.75,-12.75,0,*5C
1489622419.96,6608,9.69,73358.5,-12.19,-12.75,-12.75,0,*53
1489622421.25,6609,9.69,73334.3,-12.19,-12.65,-12.75,0,*53
1489622422.53,6610,9.69,73364.8,-12.19,-12.65,-12.65,0,*5A
1489622423.82,6611,9.69,73374.0,-12.19,-12.65,-12.75,0,*5A
1489622425.08,6612,9.69,73364.0,-12.17,-12.71,-12.71,0,*56
1489622426.34,6613,9.69,73360.3,-12.17,-12.71,-12.75,0,*53
1489622427.6,6614,9.69,73348.8,-12.17,-12.61,-12.75,0,*55
1489622428.86,6615,9.69,73332.3,-12.17,-12.61,-12.75,0,*54
1489622430.12,6616,9.69,73342.5,-12.17,-12.57,-12.61,0,*57
1489622431.37,6617,9.69,73356.8,-12.17,-12.61,-12.61,0,*53
1489622432.62,6618,9.69,73374.0,-12.17,-12.57,-12.57,0,*5C
1489622433.88,6619,9.69,73390.0,-12.17,-12.61,-12.61,0,*5D
1489622435.14,6620,9.69,73394.0,-12.17,-12.61,-12.71,0,*56
1489622436.39,6621,9.69,73382.5,-12.13,-12.61,-12.65,0,*56
1489622437.65,6622,9.69,73378.0,-12.17,-12.61,-12.71,0,*54
1489622438.91,6623,9.69,73370.3,-12.13,-12.65,-12.71,0,*55
1489622440.17,6624,9.69,73362.0,-12.17,-12.61,-12.57,0,*56
1489622441.43,6625,9.69,73348.0,-12.17,-12.53,-12.61,0,*53
1489622442.68,6626,9.69,73360.3,-12.13,-12.57,-12.65,0,*54
1489622443.94,6627,9.69,73350.5,-12.17,-12.61,-12.71,0,*51
1489622445.19,6628,9.69,73386.0,-12.13,-12.65,-12.65,0,*5B
1489622446.45,6629,9.69,73370.8,-12.13,-12.57,-12.65,0,*5B
1489622447.7,6630,9.69,73362.5,-12.13,-12.57,-12.65,0,*53
1489622448.96,6631,9.69,73378.5,-12.17,-12.61,-12.71,0,*56
1489622450.23,6632,9.69,73382.5,-12.17,-12.71,-12.71,0,*54
1489622451.49,6633,9.69,73382.0,-12.17,-12.71,-12.75,0,*51
1489622452.75,6634,9.69,73386.5,-12.17,-12.75,-12.83,0,*5B
1489622454.01,6635,9.69,73376.3,-12.13,-12.71,-12.83,0,*5A
1489622455.27,6636,9.69,73370.8,-12.13,-12.75,-12.83,0,*5D
1489622456.51,6637,9.69,73370.8,-12.17,-12.75,-12.89,0,*52
1489622457.76,6638,9.69,73370.8,-12.13,-12.79,-12.83,0,*5F
1489622459.02,6639,9.69,73364.3,-12.17,-12.75,-12.83,0,*56
1489622460.28,6640,9.69,73372.8,-12.13,-12.79,-12.83,0,*50
1489622461.51,6641,9.69,73378.0,-12.13,-12.79,-12.97,0,*54
1489622462.74,6642,9.69,73384.8,-12.17,-12.83,-12.97,0,*56
1489622463.97,6643,9.69,73386.5,-12.13,-12.83,-12.93,0,*57
1489622465.21,6644,9.69,73388.8,-12.13,-12.83,-12.93,0,*50
1489622466.41,6645,9.69,73380.5,-12.17,-12.89,-12.97,0,*5B
1489622467.64,6646,9.69,73382.8,-12.17,-12.83,-12.89,0,*5D
1489622468.9,6647,9.69,73380.5,-12.13,-12.71,-12.83,0,*5F
1489622470.13,6648,9.69,73378.3,-12.17,-12.83,-12.89,0,*53
1489622471.39,6649,9.69,73378.3,-12.13,-12.65,-12.83,0,*54
1489622472.65,6650,9.69,73368.8,-12.13,-12.79,-12.79,0,*54
1489622473.9,6651,9.69,73376.8,-12.17,-12.83,-12.83,0,*51
1489622475.17,6652,9.69,73382.5,-12.13,-12.79,-12.71,0,*5E
1489622476.43,6653,9.69,73390.5,-12.13,-12.71,-12.71,0,*57
1489622477.7,6654,9.69,73384.5,-12.13,-12.71,-12.79,0,*58
1489622478.95,6655,9.69,73380.0,-12.13,-12.71,-12.83,0,*5C
1489622480.18,6656,9.69,73386.5,-12.17,-12.83,-12.89,0,*5C
1489622481.45,6657,9.69,73386.8,-12.13,-12.71,-12.71,0,*53
1489622482.69,6658,9.69,73386.3,-12.17,-12.75,-12.89,0,*5B
1489622483.94,6659,9.69,73384.3,-12.13,-12.79,-12.83,0,*58
1489622485.21,6660,9.69,73384.0,-12.13,-12.71,-12.79,0,*5F
1489622486.47,6661,9.69,73398.0,-12.17,-12.71,-12.79,0,*5A
1489622487.73,6662,9.69,73396.5,-12.17,-12.75,-12.83,0,*58
1489622488.99,6663,9.69,73388.3,-12.13,-12.79,-12.79,0,*54
1489622490.25,6664,9.69,73388.8,-12.13,-12.71,-12.71,0,*53
1489622491.51,6665,9.69,73384.8,-12.17,-12.71,-12.75,0,*52
1489622492.78,6666,9.69,73392.5,-12.13,-12.65,-12.71,0,*54
1489622494.03,6667,9.69,73390.3,-12.13,-12.65,-12.65,0,*50
1489622495.28,6668,9.69,73382.5,-12.13,-12.57,-12.65,0,*5E
1489622496.54,6669,9.69,73386.0,-12.13,-12.53,-12.65,0,*5B
1489622497.81,6670,9.69,73380.3,-12.17,-12.71,-12.71,0,*52
1489622499.06,6671,9.69,73386.3,-12.13,-12.57,-12.65,0,*56
1489622500.31,6672,9.69,73374.0,-12.17,-12.57,-12.65,0,*51
1489622501.58,6673,9.69,73378.3,-12.13,-12.65,-12.71,0,*50
1489622502.84,6674,9.69,73380.0,-12.13,-12.65,-12.71,0,*57
1489622504.09,6675,9.69,73376.8,-12.13,-12.65,-12.65,0,*53
1489622505.36,6676,9.69,73390.8,-12.13,-12.65,-12.71,0,*55
1489622506.62,6677,9.69,73378.5,-12.13,-12.65,-12.79,0,*5C
1489622507.9,6678,9.69,73374.8,-12.11,-12.71,-12.79,0,*54
1489622509.19,6679,9.69,73386.5,-12.11,-12.71,-12.79,0,*55
1489622510.47,6680,9.69,73388.8,-12.11,-12.71,-12.83,0,*56
1489622511.73,6681,9.69,73388.0,-12.13,-12.71,-12.83,0,*55
1489622512.99,6682,9.69,73394.8,-12.13,-12.71,-12.83,0,*56
1489622514.26,6683,9.69,73384.8,-12.13,-12.71,-12.71,0,*5A
1489622515.55,6684,9.69,73378.0,-12.11,-12.65,-12.71,0,*5A
1489622516.84,6685,9.69,73368.3,-12.11,-12.71,-12.71,0,*5E
1489622518.12,6686,9.69,73372.3,-12.11,-12.65,-12.65,0,*5D
1489622519.4,6687,9.69,73372.0,-12.11,-12.65,-12.65,0,*5C
1489622520.68,6688,9.69,73356.5,-12.11,-12.71,-12.65,0,*56
1489622521.95,6689,9.69,73356.3,-12.11,-12.65,-12.65,0,*52
1489622523.24,6690,9.69,73362.8,-12.11,-12.65,-12.71,0,*5F
1489622524.5,6691,9.69,73360.0,-12.09,-12.57,-12.71,0,*56
1489622525.79,6692,9.69,73362.3,-12.11,-12.65,-12.57,0,*59
1489622527.07,6693,9.69,73342.0,-12.11,-12.65,-12.65,0,*59
1489622528.35,6694,9.69,73350.8,-12.11,-12.71,-12.65,0,*5B
1489622529.64,6695,9.69,73360.0,-12.11,-12.71,-12.71,0,*5F
1489622530.93,6696,9.69,73374.3,-12.11,-12.65,-12.71,0,*59
1489622532.21,6697,9.69,73376.8,-12.11,-12.65,-12.79,0,*50
1489622533.5,6698,9.69,73372.0,-12.11,-12.65,-12.79,0,*5F
1489622534.78,6699,9.69,73376.8,-12.11,-12.65,-12.65,0,*53
1489622536.06,6700,9.69,73376.5,-12.11,-12.71,-12.65,0,*57
1489622537.35,6701,9.69,73374.3,-12.11,-12.65,-12.71,0,*56
1489622538.63,6702,9.69,73368.3,-12.11,-12.57,-12.65,0,*51
1489622539.91,6703,9.69,73372.5,-12.11,-12.65,-12.79,0,*5C
1489622541.2,6704,9.63,73358.5,-12.11,-12.71,-12.79,0,*5E
1489622542.46,6705,9.69,73360.0,-12.09,-12.65,-12.71,0,*5B
1489622543.75,6706,9.69,73362.3,-12.11,-12.71,-12.79,0,*5C
1489622545.01,6707,9.69,73340.0,-12.09,-12.71,-12.79,0,*54
1489622546.26,6708,9.69,73358.0,-12.09,-12.71,-12.79,0,*5B
1489622547.55,6709,9.69,73352.0,-12.11,-12.71,-12.83,0,*56
1489622548.84,6710,9.69,73360.8,-12.11,-12.65,-12.71,0,*56
1489622550.13,6711,9.69,73364.0,-12.11,-12.71,-12.71,0,*52
1489622551.42,6712,9.69,73372.5,-12.11,-12.71,-12.71,0,*51
1489622552.68,6713,9.69,73364.0,-12.09,-12.65,-12.71,0,*5C
1489622553.94,6714,9.69,73352.0,-12.13,-12.65,-12.71,0,*50
1489622555.23,6715,9.69,73358.3,-12.11,-12.71,-12.79,0,*5E
1489622556.52,6716,9.69,73360.5,-12.11,-12.71,-12.79,0,*5D
1489622557.77,6717,9.69,73354.3,-12.09,-12.65,-12.79,0,*50
1489622559.03,6718,9.69,73364.0,-12.09,-12.65,-12.71,0,*57
1489622560.29,6719,9.69,73364.3,-12.09,-12.71,-12.79,0,*5B
1489622561.58,6720,9.69,73376.0,-12.11,-12.71,-12.71,0,*50
1489622562.87,6721,9.69,73352.0,-12.11,-12.65,-12.71,0,*54
1489622564.13,6722,9.69,73340.8,-12.09,-12.65,-12.71,0,*5E
1489622565.41,6723,9.69,73346.8,-12.11,-12.65,-12.65,0,*53
1489622566.67,6724,9.69,73352.5,-12.09,-12.65,-12.71,0,*58
1489622567.93,6725,9.69,73364.5,-12.09,-12.71,-12.71,0,*5C
1489622569.18,6726,9.69,73368.0,-12.09,-12.65,-12.65,0,*5F
1489622570.43,6727,9.69,73386.8,-12.09,-12.65,-12.57,0,*5F
1489622571.69,6728,9.69,73376.0,-12.09,-12.53,-12.65,0,*54
1489622572.94,6729,9.69,73372.8,-12.09,-12.57,-12.65,0,*51
1489622574.19,6730,9.69,73366.8,-12.09,-12.65,-12.57,0,*59
1489622575.47,6731,9.69,73368.8,-12.11,-12.57,-12.57,0,*50
1489622576.73,6732,9.69,73368.5,-12.09,-12.57,-12.57,0,*5A
1489622577.99,6733,9.69,73364.8,-12.09,-12.53,-12.53,0,*5B
1489622579.28,6734,9.69,73366.0,-12.11,-12.53,-12.53,0,*55
1489622580.53,6735,9.69,73364.0,-12.09,-12.53,-12.57,0,*59
1489622581.79,6736,9.69,73368.8,-12.09,-12.57,-12.57,0,*5E
1489622583.04,6737,9.69,73370.8,-12.09,-12.57,-12.57,0,*5F
1489622584.3,6738,9.69,73370.5,-12.09,-12.53,-12.53,0,*50
1489622585.56,6739,9.69,73374.3,-12.09,-12.57,-12.53,0,*55
1489622586.82,6740,9.69,73376.5,-12.09,-12.53,-12.53,0,*5F
1489622588.07,6741,9.69,73374.5,-12.09,-12.57,-12.57,0,*5E
1489622589.33,6742,9.69,73374.5,-12.09,-12.53,-12.53,0,*5D
1489622590.59,6743,9.69,73380.8,-12.07,-12.53,-12.47,0,*57
1489622591.83,6744,9.69,73398.3,-12.07,-12.47,-12.47,0,*55
1489622593.06,6745,9.69,73382.0,-12.07,-12.47,-12.47,0,*54
1489622594.32,6746,9.69,73384.8,-12.07,-12.47,-12.53,0,*52
1489622595.59,6747,9.69,73380.0,-12.07,-12.53,-12.47,0,*53
1489622596.85,6748,9.69,73370.0,-12.07,-12.53,-12.47,0,*5C
1489622598.14,6749,9.69,73380.0,-12.07,-12.53,-12.53,0,*58
1489622599.4,6750,9.69,73380.5,-12.07,-12.47,-12.53,0,*55
1489622600.64,6751,9.69,73380.5,-12.05,-12.47,-12.53,0,*56
1489622601.93,6752,9.69,73382.3,-12.07,-12.53,-12.65,0,*57
1489622603.2,6753,9.69,73386.8,-12.07,-12.61,-12.65,0,*57
1489622604.48,6754,9.69,73384.3,-12.07,-12.61,-12.65,0,*50
1489622605.76,6755,9.69,73386.0,-12.07,-12.61,-12.65,0,*51
1489622607.04,6756,9.69,73376.5,-12.07,-12.61,-12.79,0,*5F
1489622608.33,6757,9.69,73372.5,-12.07,-12.61,-12.75,0,*52
1489622609.61,6758,9.69,73376.0,-12.07,-12.61,-12.75,0,*5D
1489622610.87,6759,9.69,73372.0,-12.05,-12.61,-12.75,0,*5E
1489622612.16,6760,9.69,73384.0,-12.07,-12.65,-12.75,0,*52
1489622613.42,6761,9.69,73374.3,-12.05,-12.65,-12.75,0,*51
1489622614.71,6762,9.69,73382.0,-12.07,-12.65,-12.75,0,*50
1489622615.97,6763,9.69,73382.0,-12.05,-12.65,-12.79,0,*5F
1489622617.26,6764,9.69,73384.8,-12.07,-12.65,-12.79,0,*5A
1489622618.54,6765,9.69,73390.5,-12.01,-12.71,-12.83,0,*5D
1489622619.78,6766,9.69,73382.8,-12.05,-12.79,-12.89,0,*58
1489622621.05,6767,9.69,73382.5,-12.07,-12.75,-12.89,0,*57
1489622622.31,6768,9.63,73378.5,-12.07,-12.75,-12.89,0,*58
1489622623.6,6769,9.63,73374.8,-12.07,-12.79,-12.79,0,*5A
1489622624.83,6770,9.69,73376.5,-12.07,-12.89,-12.93,0,*59
1489622626.09,6771,9.63,73380.8,-12.07,-12.79,-12.93,0,*57
1489622627.33,6772,9.63,73382.5,-12.07,-12.89,-12.93,0,*5B
1489622628.56,6773,9.69,73376.5,-12.07,-12.89,-12.89,0,*51
1489622629.78,6774,9.69,73370.8,-12.05,-12.89,-12.93,0,*5F
1489622630.99,6775,9.69,73368.8,-12.05,-12.93,-12.93,0,*55
1489622632.23,6776,9.69,73366.0,-12.07,-12.93,-12.93,0,*54
1489622633.46,6777,9.69,73378.0,-12.07,-12.89,-12.89,0,*55
1489622634.7,6778,9.69,73368.5,-12.07,-12.89,-12.93,0,*51
1489622635.96,6779,9.69,73374.5,-12.07,-12.79,-12.93,0,*5F
1489622637.19,6780,9.63,73366.5,-12.09,-12.83,-12.97,0,*56
1489622638.39,6781,9.69,73366.3,-12.09,-12.93,-12.97,0,*56
1489622639.6,6782,9.69,73364.5,-12.09,-12.93,-12.97,0,*55
1489622640.84,6783,9.69,73352.5,-12.07,-12.89,-12.93,0,*55
1489622642.07,6784,9.69,73358.3,-12.07,-12.89,-12.89,0,*59
1489622643.31,6785,9.63,73368.3,-12.07,-12.93,-12.89,0,*53
1489622644.54,6786,9.69,73374.0,-12.09,-12.83,-12.93,0,*54
1489622645.8,6787,9.69,73362.0,-12.07,-12.75,-12.93,0,*52
1489622647.06,6788,9.69,73366.5,-12.07,-12.79,-12.89,0,*5A
1489622648.35,6789,9.69,73364.3,-12.07,-12.75,-12.79,0,*58
1489622649.64,6790,9.63,73360.0,-12.07,-12.75,-12.79,0,*50
1489622650.91,6791,9.69,73364.8,-12.07,-12.75,-12.89,0,*5E
1489622652.2,6792,9.69,73364.3,-12.07,-12.75,-12.79,0,*52
1489622653.46,6793,9.69,73370.3,-12.07,-12.65,-12.89,0,*5D
1489622654.74,6794,9.69,73364.8,-12.07,-12.65,-12.79,0,*55
1489622655.98,6795,9.69,73370.5,-12.05,-12.75,-12.89,0,*58
1489622657.22,6796,9.69,73380.8,-12.05,-12.75,-12.89,0,*5B
1489622658.48,6797,9.69,73382.5,-12.07,-12.79,-12.89,0,*54
1489622659.75,6798,9.69,73380.0,-12.07,-12.75,-12.89,0,*57
1489622661.01,6799,9.63,73378.5,-12.07,-12.89,-12.79,0,*5A
1489622662.3,6800,9.69,73380.0,-12.07,-12.79,-12.75,0,*56
1489622663.59,6801,9.69,73374.8,-12.07,-12.75,-12.79,0,*57
1489622664.84,6802,9.69,73376.3,-12.09,-12.83,-12.79,0,*53
1489622666.11,6803,9.69,73384.0,-12.05,-12.65,-12.75,0,*5A
1489622667.37,6804,9.69,73386.5,-12.05,-12.65,-12.75,0,*5D
1489622668.65,6805,9.69,73380.5,-12.07,-12.65,-12.75,0,*5E
1489622669.93,6806,9.63,73364.5,-12.07,-12.65,-12.65,0,*5C
1489622671.22,6807,9.63,73366.3,-12.07,-12.65,-12.75,0,*5C
1489622672.48,6808,9.63,73366.5,-12.05,-12.65,-12.79,0,*5D
1489622673.77,6809,9.69,73368.3,-12.07,-12.61,-12.75,0,*56
1489622675.05,6810,9.69,73378.3,-12.07,-12.61,-12.75,0,*5E
1489622676.34,6811,9.69,73374.3,-12.07,-12.65,-12.75,0,*5B
1489622677.63,6812,9.69,73374.0,-12.07,-12.65,-12.75,0,*58
1489622678.91,6813,9.63,73362.3,-12.07,-12.61,-12.79,0,*51
1489622680.2,6814,9.63,73364.8,-12.07,-12.75,-12.79,0,*53
1489622681.49,6815,9.69,73362.0,-12.07,-12.65,-12.75,0,*5F
1489622682.77,6816,9.69,73340.5,-12.07,-12.65,-12.79,0,*50
1489622684.04,6817,9.69,73342.0,-12.05,-12.65,-12.79,0,*53
1489622685.33,6818,9.69,73352.3,-12.07,-12.75,-12.79,0,*5F
1489622686.62,6819,9.69,73350.5,-12.07,-12.75,-12.75,0,*52
1489622687.88,6820,9.69,73352.0,-12.05,-12.75,-12.75,0,*5A
1489622689.17,6821,9.69,73366.8,-12.07,-12.65,-12.75,0,*58
1489622690.45,6822,9.69,73368.3,-12.07,-12.61,-12.65,0,*5E
1489622691.73,6823,9.69,73370.0,-12.07,-12.61,-12.75,0,*5E
1489622693.01,6824,9.69,73342.5,-12.07,-12.65,-12.65,0,*5C
1489622694.29,6825,9.69,73332.5,-12.07,-12.61,-12.61,0,*5D
1489622695.53,6826,9.69,73316.5,-12.05,-12.47,-12.53,0,*59
1489622696.82,6827,9.69,73288.0,-12.07,-12.53,-12.53,0,*5F
1489622698.09,6828,9.69,73298.8,-12.05,-12.53,-12.53,0,*52
1489622699.38,6829,9.69,73328.0,-12.07,-12.53,-12.53,0,*51
1489622700.61,6830,9.69,73340.0,-12.05,-12.47,-12.53,0,*5E
1489622701.85,6831,9.69,73332.0,-12.05,-12.47,-12.53,0,*5F
1489622703.09,6832,9.69,73334.8,-12.05,-12.47,-12.53,0,*5C
1489622704.33,6833,9.69,73342.3,-12.05,-12.53,-12.47,0,*5D
1489622705.54,6834,9.69,73344.3,-12.05,-12.47,-12.47,0,*5F
1489622706.8,6835,9.69,73346.3,-12.07,-12.47,-12.53,0,*59
1489622708.04,6836,9.69,73346.5,-12.07,-12.47,-12.47,0,*5F
1489622709.28,6837,9.69,73324.8,-12.05,-12.53,-12.39,0,*50
1489622710.49,6838,9.69,73312.3,-12.05,-12.39,-12.47,0,*5A
1489622711.7,6839,9.69,73330.8,-12.05,-12.47,-12.39,0,*5B
1489622712.91,6840,9.69,73354.8,-12.05,-12.47,-12.39,0,*55
1489622714.15,6841,9.69,73352.5,-12.05,-12.39,-12.35,0,*51
1489622715.38,6842,9.69,73346.5,-12.05,-12.39,-12.35,0,*52
1489622716.59,6843,9.69,73350.8,-12.05,-12.39,-12.47,0,*56
1489622717.8,6844,9.63,73328.8,-12.05,-12.39,-12.47,0,*51
1489622719.07,6845,9.69,73358.5,-12.01,-12.29,-12.35,0,*50
1489622720.31,6846,9.69,73350.0,-12.01,-12.29,-12.29,0,*5E
1489622721.56,6847,9.69,73352.0,-11.99,-12.35,-12.29,0,*50
1489622722.85,6848,9.63,73332.0,-12.01,-12.35,-12.35,0,*50
1489622724.14,6849,9.69,73360.8,-12.01,-12.35,-12.35,0,*51
1489622725.38,6850,9.69,73356.8,-11.99,-12.29,-12.35,0,*56
1489622726.62,6851,9.69,73368.0,-11.99,-12.35,-12.29,0,*57
1489622727.92,6852,9.69,73364.8,-12.01,-12.35,-12.35,0,*5B
1489622729.18,6853,9.69,73374.5,-12.01,-12.43,-12.35,0,*5B
1489622730.47,6854,9.69,73358.3,-12.01,-12.35,-12.35,0,*5D
1489622731.71,6855,9.69,73352.8,-11.99,-12.35,-12.47,0,*5B
1489622732.92,6856,9.63,73352.3,-11.99,-12.43,-12.47,0,*59
1489622734.16,6857,9.69,73354.0,-12.01,-12.47,-12.47,0,*5E
1489622735.42,6858,9.69,73352.3,-12.01,-12.47,-12.61,0,*55
1489622736.71,6859,9.69,73348.3,-12.01,-12.57,-12.61,0,*55
1489622737.97,6860,9.69,73348.3,-11.99,-12.57,-12.61,0,*5D
1489622739.23,6861,9.69,73344.8,-11.99,-12.57,-12.61,0,*5C
1489622740.49,6862,9.69,73354.0,-11.99,-12.57,-12.57,0,*5A
1489622741.77,6863,9.69,73340.3,-12.01,-12.57,-12.61,0,*5C
1489622743.04,6864,9.69,73352.5,-11.99,-12.61,-12.71,0,*5D
1489622744.3,6865,9.69,73356.0,-11.99,-12.61,-12.71,0,*5C
1489622745.59,6866,9.69,73358.0,-12.01,-12.61,-12.75,0,*59
1489622746.88,6867,9.69,73356.3,-12.01,-12.61,-12.75,0,*58
1489622748.14,6868,9.69,73358.0,-11.99,-12.61,-12.75,0,*55
1489622749.4,6869,9.69,73354.3,-11.99,-12.61,-12.75,0,*54
1489622750.66,6870,9.69,73352.8,-11.99,-12.71,-12.75,0,*5D
1489622751.96,6871,9.69,73346.0,-12.01,-12.75,-12.75,0,*5A
1489622753.23,6872,9.69,73326.3,-11.99,-12.75,-12.75,0,*5B
1489622754.47,6873,9.69,73324.8,-11.99,-12.75,-12.89,0,*59
1489622755.72,6874,9.69,73278.8,-11.99,-12.83,-12.83,0,*5D
1489622757.01,6875,9.69,73304.5,-12.01,-12.71,-12.83,0,*53
1489622758.27,6876,9.69,73326.8,-11.99,-12.75,-12.83,0,*56
1489622759.54,6877,9.63,73348.0,-11.99,-12.83,-12.75,0,*57
1489622760.83,6878,9.63,73354.8,-12.01,-12.75,-12.71,0,*57
1489622762.1,6879,9.69,73348.8,-11.99,-12.75,-12.75,0,*50
1489622763.39,6880,9.69,73368.5,-12.01,-12.71,-12.75,0,*50
1489622764.68,6881,9.69,73364.5,-12.01,-12.71,-12.75,0,*51
1489622765.95,6882,9.69,73362.5,-11.99,-12.75,-12.75,0,*54
1489622767.24,6883,9.69,73360.5,-12.01,-12.71,-12.71,0,*57
1489622768.54,6884,9.69,73352.3,-12.01,-12.71,-12.71,0,*50
1489622769.83,6885,9.69,73358.8,-12.01,-12.71,-12.57,0,*55
1489622771.09,6886,9.69,73350.8,-11.99,-12.71,-12.61,0,*51
1489622772.35,6887,9.69,73356.8,-11.99,-12.57,-12.57,0,*51
1489622773.61,6888,9.69,73350.0,-11.99,-12.57,-12.57,0,*5E
1489622774.87,6889,9.69,73352.3,-12.01,-12.57,-12.47,0,*5C
1489622776.08,6890,9.63,73346.0,-11.99,-12.47,-12.43,0,*53
1489622777.32,6891,9.69,73352.0,-12.01,-12.47,-12.43,0,*50
1489622778.56,6892,9.69,73350.0,-12.01,-12.47,-12.47,0,*57
1489622779.77,6893,9.69,73354.5,-11.99,-12.43,-12.43,0,*54
1489622781.01,6894,9.69,73344.5,-12.01,-12.47,-12.43,0,*55
1489622782.21,6895,9.69,73350.5,-11.99,-12.43,-12.47,0,*56
1489622783.45,6896,9.69,73358.8,-11.99,-12.43,-12.35,0,*50
1489622784.66,6897,9.69,73356.3,-11.99,-12.43,-12.43,0,*50
1489622785.87,6898,9.69,73356.5,-11.99,-12.43,-12.43,0,*5F
1489622787.08,6899,9.69,73356.5,-11.99,-12.43,-12.43,0,*5E
1489622788.29,6900,9.69,73334.5,-11.99,-12.43,-12.43,0,*5F
1489622789.5,6901,9.69,73350.3,-11.99,-12.39,-12.43,0,*53
1489622790.71,6902,9.69,73348.0,-11.99,-12.39,-12.43,0,*50
1489622791.91,6903,9.69,73352.8,-11.99,-12.43,-12.43,0,*5C
1489622793.12,6904,9.69,73358.3,-11.99,-12.43,-12.43,0,*5B
1489622794.33,6905,9.69,73348.0,-11.99,-12.43,-12.43,0,*5A
1489622795.59,6906,9.69,73348.8,-11.97,-12.39,-12.57,0,*5F
1489622796.83,6907,9.69,73336.5,-11.99,-12.43,-12.53,0,*59
1489622798.06,6908,9.69,73320.5,-11.99,-12.43,-12.53,0,*56
1489622799.27,6909,9.69,73356.5,-11.99,-12.43,-12.43,0,*56
1489622800.51,6910,9.69,73350.8,-11.99,-12.43,-12.53,0,*5F
1489622801.74,6911,9.69,73368.0,-11.99,-12.43,-12.57,0,*5A
1489622802.98,6912,9.69,73368.3,-11.99,-12.43,-12.53,0,*5D
1489622804.21,6913,9.69,73358.8,-11.99,-12.43,-12.53,0,*5C
1489622805.45,6914,9.69,73358.3,-11.99,-12.43,-12.53,0,*5B
1489622806.71,6915,9.69,73354.3,-11.97,-12.43,-12.53,0,*54
1489622807.94,6916,9.69,73358.8,-11.99,-12.39,-12.57,0,*50
1489622809.21,6917,9.69,73356.0,-11.99,-12.53,-12.53,0,*59
1489622810.45,6918,9.69,73344.0,-11.99,-12.43,-12.53,0,*57
1489622811.68,6919,9.69,73356.3,-11.99,-12.43,-12.57,0,*52
1489622812.94,6920,9.69,73358.0,-11.97,-12.43,-12.57,0,*56
1489622814.2,6921,9.69,73366.8,-11.99,-12.57,-12.57,0,*5C
1489622815.46,6922,9.69,73370.8,-11.99,-12.57,-12.65,0,*5E
1489622816.71,6923,9.69,73360.5,-11.99,-12.57,-12.65,0,*5F
1489622818.0,6924,9.69,73364.8,-11.97,-12.53,-12.65,0,*52
1489622819.26,6925,9.69,73368.8,-11.99,-12.57,-12.65,0,*59
1489622820.52,6926,9.69,73372.5,-11.99,-12.65,-12.71,0,*5E
1489622821.8,6927,9.69,73370.8,-11.97,-12.65,-12.65,0,*54
1489622823.07,6928,9.69,73376.8,-11.99,-12.71,-12.71,0,*55
1489622824.34,6929,9.69,73370.5,-11.99,-12.71,-12.71,0,*54
1489622825.63,6930,9.69,73372.5,-11.97,-12.65,-12.71,0,*57
1489622826.89,6931,9.69,73366.8,-11.99,-12.71,-12.65,0,*58
1489622828.16,6932,9.69,73360.0,-11.99,-12.57,-12.71,0,*5A
1489622829.42,6933,9.69,73358.0,-11.99,-12.65,-12.71,0,*5A
1489622830.72,6934,9.69,73362.8,-11.97,-12.65,-12.71,0,*53
1489622831.98,6935,9.69,73358.5,-11.99,-12.65,-12.71,0,*5C
1489622833.24,6936,9.69,73356.5,-11.99,-12.65,-12.65,0,*5A
1489622834.51,6937,9.69,73358.8,-11.99,-12.65,-12.71,0,*5E
1489622835.76,6938,9.69,73356.5,-11.99,-12.65,-12.65,0,*54
1489622837.03,6939,9.69,73356.8,-11.99,-12.65,-12.71,0,*50
1489622838.29,6940,9.69,73348.8,-11.99,-12.71,-12.65,0,*5E
1489622839.57,6941,9.69,73358.3,-11.97,-12.57,-12.65,0,*55
1489622840.82,6942,9.69,73354.8,-11.99,-12.65,-12.65,0,*59
1489622842.08,6943,9.69,73354.8,-11.99,-12.65,-12.65,0,*58
1489622843.34,6944,9.69,73358.8,-11.99,-12.57,-12.65,0,*5E
1489622844.59,6945,9.69,73356.0,-11.99,-12.57,-12.65,0,*5F
1489622845.85,6946,9.69,73348.5,-11.99,-12.57,-12.65,0,*5C
1489622847.11,6947,9.69,73352.0,-11.99,-12.57,-12.65,0,*5D
1489622848.39,6948,9.69,73358.8,-11.97,-12.57,-12.57,0,*5D
1489622849.66,6949,9.69,73356.0,-11.99,-12.53,-12.57,0,*56
1489622850.95,6950,9.69,73362.5,-11.97,-12.57,-12.53,0,*50
1489622852.21,6951,9.69,73370.8,-11.99,-12.53,-12.57,0,*5F
1489622853.47,6952,9.69,73364.0,-11.99,-12.53,-12.65,0,*5D
1489622854.73,6953,9.69,73368.5,-11.99,-12.57,-12.57,0,*59
1489622855.99,6954,9.69,73370.8,-11.99,-12.57,-12.53,0,*5A
1489622857.26,6955,9.69,73364.0,-11.99,-12.53,-12.53,0,*5F
1489622858.55,6956,9.69,73360.3,-11.97,-12.53,-12.57,0,*56
1489622859.84,6957,9.69,73364.8,-11.97,-12.57,-12.53,0,*57
1489622861.1,6958,9.69,73364.0,-11.99,-12.53,-12.57,0,*56
1489622862.34,6959,9.69,73354.3,-11.99,-12.53,-12.43,0,*52
1489622863.58,6960,9.69,73342.8,-11.97,-12.43,-12.39,0,*5A
1489622864.81,6961,9.69,73346.5,-11.97,-12.39,-12.43,0,*5B
1489622866.02,6962,9.63,73348.0,-11.99,-12.43,-12.43,0,*5B
1489622867.26,6963,9.69,73354.3,-11.99,-12.53,-12.43,0,*5B
1489622868.5,6964,9.69,73348.5,-11.97,-12.43,-12.43,0,*53
1489622869.7,6965,9.69,73362.8,-11.99,-12.39,-12.43,0,*51
1489622870.91,6966,9.69,73366.0,-11.99,-12.43,-12.43,0,*5F
1489622872.18,6967,9.69,73368.3,-11.97,-12.43,-12.53,0,*51
1489622873.44,6968,9.69,73370.0,-11.97,-12.43,-12.53,0,*5E
1489622874.7,6969,9.69,73356.0,-11.97,-12.43,-12.53,0,*5F
1489622875.96,6970,9.69,73356.8,-11.97,-12.43,-12.53,0,*57
1489622877.25,6971,9.69,73348.5,-11.97,-12.53,-12.53,0,*57
1489622878.52,6972,9.69,73352.5,-11.99,-12.53,-12.53,0,*5A
1489622879.81,6973,9.69,73344.8,-11.97,-12.53,-12.57,0,*51
1489622881.1,6974,9.69,73348.8,-11.97,-12.53,-12.57,0,*56
1489622882.39,6975,9.69,73364.8,-11.97,-12.53,-12.65,0,*56
1489622883.67,6976,9.69,73364.0,-11.97,-12.57,-12.65,0,*51
1489622884.96,6977,9.69,73326.3,-11.97,-12.53,-12.65,0,*54
1489622886.24,6978,9.69,73306.8,-11.97,-12.57,-12.57,0,*5E
1489622887.5,6979,9.69,73342.0,-11.99,-12.53,-12.65,0,*54
1489622888.78,6980,9.69,73348.8,-11.97,-12.65,-12.65,0,*59
1489622890.08,6981,9.69,73350.5,-11.97,-12.65,-12.71,0,*5D
1489622891.37,6982,9.69,73342.0,-11.97,-12.65,-12.71,0,*5E
1489622892.65,6983,9.69,73324.8,-11.97,-12.65,-12.65,0,*5A
1489622893.93,6984,9.69,73340.0,-11.97,-12.57,-12.65,0,*5C
1489622895.22,6985,9.69,73348.3,-11.97,-12.71,-12.65,0,*59
1489622896.51,6986,9.69,73352.0,-11.97,-12.65,-12.71,0,*5A
1489622897.78,6987,9.69,73344.8,-11.99,-12.65,-12.71,0,*55
1489622899.07,6988,9.69,73350.0,-11.97,-12.71,-12.71,0,*51
1489622900.36,6989,9.69,73352.3,-11.97,-12.71,-12.79,0,*58
1489622901.65,6990,9.69,73354.5,-11.97,-12.71,-12.79,0,*50
1489622902.94,6991,9.69,73342.8,-11.97,-12.79,-12.79,0,*59
1489622904.23,6992,9.69,73338.0,-11.97,-12.79,-12.79,0,*5A
1489622905.52,6993,9.69,73328.5,-11.97,-12.83,-12.83,0,*5B
1489622906.8,6994,9.69,73324.5,-11.97,-12.79,-12.79,0,*5C
1489622908.07,6995,9.69,73334.5,-11.99,-12.79,-12.79,0,*53
1489622909.33,6996,9.69,73342.5,-11.99,-12.79,-12.79,0,*50
1489622910.63,6997,9.69,73310.0,-11.97,-12.71,-12.71,0,*5F
1489622911.89,6998,9.69,73332.3,-11.99,-12.71,-12.71,0,*5E
1489622913.19,6999,9.69,73338.5,-11.97,-12.71,-12.71,0,*51